Regional Weather Roundup
Issued by NWS Wakefield, VA

Home | Current Version | Previous Version | Text Only | Print | Product List | Glossary Off
Versions: 1 2 3 4 5 6 7 8 9 10 11 12 13 14 15 16 17 18 19 20 21 22 23 24 25 26 27

000
ASUS41 KAKQ 052115
RWRAKQ

REGIONAL WEATHER ROUNDUP
NATIONAL WEATHER SERVICE WAKEFIELD VA
500 PM EDT THU MAY 05 2016

Note: "fair" indicates few or no clouds below 12,000 feet with no
significant weather and/or obstructions to visibility. * = Denotes
station may not report precipitation (e.g., rain,snow,etc.),
thunder or fog.

VAZ042-051-052>054-056-052200-
NORTHERN VIRGINIA

CITY           SKY/WX    TMP DP  RH WIND       PRES   REMARKS
WASH NATIONAL  CLOUDY    57  47  69 NE14      29.63F
DULLES         PTSUNNY   56  47  71 N14       29.64S
FORT BELVOIR   PTSUNNY   58  47  67 VRB3      29.63S
QUANTICO       CLOUDY    57  48  72 NE10      29.63F
FREDERICKSBRG* CLOUDY    55  52  88 N10       29.62S
STAFFORD*      CLOUDY    55  48  75 N8        29.66F
WARRENTON      CLOUDY    58  46  65 N8        29.62F
CULPEPER*      CLOUDY    56  50  80 N10       29.64F
MANASSAS*      CLOUDY    57  48  72 N10       29.63F
LEESBURG*      CLOUDY    57  52  82 N8        29.65S
WINCHESTER     CLOUDY    55  48  76 NE3       29.64F
FRONT ROYAL*   CLOUDY    54  50  87 CALM      29.64F
LURAY*         CLOUDY    54  52  94 N9        29.64F
$$

VAZ048-049-060>072-079>083-052200-
CENTRAL AND SOUTH CENTRAL VIRGINIA

CITY           SKY/WX    TMP DP  RH WIND       PRES   REMARKS
RICHMOND       RAIN      51  49  92 N13       29.60S FOG
CHESTERFIELD*  MOCLDY    52  39  62 N7        29.62R
PETERSBURG*    DRIZZLE   54  54 100 N8        29.61R
HANOVER        CLOUDY    53  48  83 CALM      29.62S
TAPPAHANNOCK*  LGT RAIN  54  50  87 N9        29.61S
QUINTON*       CLOUDY    51  50  95 NE5       29.59S
CHARLOTTSVILLE CLOUDY    54  48  80 N6        29.63S
GORDONSVILLE*  CLOUDY    54  50  86 NE8G16    29.62S
ORANGE*        DRIZZLE   54  52  94 NE7       29.64F
LOUISA*        CLOUDY    57  54  88 N8        29.61S
BUMPASS*       CLOUDY    52  49  89 NE3       29.62R
FARMVILLE*     LGT RAIN  53  53 100 N8        29.60S
CREWE*         CLOUDY    52  52 100 N3        29.59S
FORT PICKETT*  NOT AVBL
CHASE CITY*    CLOUDY    52  50  95 N3        29.61R
CLARKSVILLE*   CLOUDY    52  52 100 N5        29.60R
SOUTH HILL*    CLOUDY    52  51  98 N7        29.65R
LAWRENCEVILLE* CLOUDY    53  52  98 N3        29.59R
EMPORIA*       RAIN      52  52 100 N3        29.60R
$$

VAZ088>098-052200-
SOUTHEAST VIRGINIA

CITY           SKY/WX    TMP DP  RH WIND       PRES   REMARKS
NORFOLK        CLOUDY    54  48  80 NE15G23   29.57R
VIRGINIA BEACH CLOUDY    56  46  69 NE20G30   29.56R
NORFOLK NAVAL  DRIZZLE   54  50  86 NE9       29.60R FOG
WEST POINT*    CLOUDY    53  49  89 N3        29.61R
SALUDA*        CLOUDY    52  49  90 N9        29.59S
NEWPORT NEWS   CLOUDY    53  49  86 NE12G18   29.58R
LANGLEY AFB    CLOUDY    54  50  87 NE8       29.58R
FORT EUSTIS    CLOUDY    54  47  78 NE6       29.57R
WILLIAMSBURG*  FAIR      54  52  94 NE6       29.59S
HR EXEC AP*    CLOUDY    54  48  82 E3        29.61R
FRANKLIN*      RAIN      52  50  93 NE12      29.58F
US460-WAKEFLD  RAIN      52  50  93 NE6       29.60R FOG
$$

VAZ020-022-025-037-045-052200-
WEST CENTRAL AND SOUTHWEST VIRGINIA

CITY           SKY/WX    TMP DP  RH WIND       PRES   REMARKS
STAUNTON*      CLOUDY    53  51  95 N8        29.66S
WAYNESBORO*    CLOUDY    49  48  95 N12G17    29.64S
HOT SPRINGS VA LGT RAIN  42  42 100 NW9       29.63S VSB 1/4
LYNCHBURG      HVY RAIN  51  50  96 NW3       29.63R FOG
DANVILLE       LGT RAIN  49  47  93 W10       29.63R FOG
SOUTH BOSTON*  CLOUDY    53  52  95 CALM      29.61S
MARTINSVILLE   RAIN      44  42  92 NW3       29.68R
ROANOKE        LGT RAIN  50  43  77 W8        29.67S
BLACKSBURG     LGT RAIN  44  41  90 W9        29.71S
DUBLIN*        LGT RAIN  44  42  90 N3        29.71R
MARION*        LGT RAIN  43  39  85 W10G16    29.74S
HILLSVILLE*    LGT RAIN  40  38  93 NW17G24   29.66F
RICHLANDS*     LGT RAIN  41  32  69 N3        29.75R
WISE*          DRIZZLE   45  32  61 NW10      29.77R
ABINGDON*      DRIZZLE   50  37  60 NE5       29.74R
$$

MDZ021>025-VAZ099-100-052200-
SOUTHERN MARYLAND AND THE DELMARVA PENINSULA

CITY           SKY/WX    TMP DP  RH WIND       PRES   REMARKS
PATUXENT RIVER CLOUDY    54  47  77 N13       29.61S
BAY BRIDGE APT NOT AVBL
LEONARDTOWN    CLOUDY    52  45  76 N5        29.62F
DOVER          CLOUDY    53  50  92 NE12      29.61S
GEORGETOWN     CLOUDY    52  48  86 NE12      29.62R
EASTON         PTSUNNY  N/A N/A N/A NE10      29.65F
CAMBRIDGE      CLOUDY    52  46  82 N9        29.61S
SALISBURY      CLOUDY    52  48  86 NE12      29.60S
OCEAN CITY     CLOUDY    51  46  83 NE17G25   29.60S
WALLOPS ISLAND CLOUDY    52  46  80 N15       29.59S
ACCOMACK*      CLOUDY   N/A N/A N/A NE9       29.58S
$$

NCZ012>017-030>032-052200-
NORTH CENTRAL AND EASTERN NORTH CAROLINA

CITY           SKY/WX    TMP DP  RH WIND       PRES   REMARKS
ROANOKE RAPIDS RAIN      54  52  94 NE3       29.58R
RALEIGH        PTSUNNY   55  51  86 N9G22     29.59S
ELIZABETH CITY CLOUDY    52  49  89 N16       29.57R
AHOSKIE*       RAIN      53  51  95 NE3       29.58R
EDENTON*       RAIN      54  54  97 E6        29.59R
CURRITUCK*     CLOUDY    53  49  87 NE17G24   29.57R
KILL DEVIL HLS CLOUDY    53  48  84 NE13G20   29.53R
MANTEO         CLOUDY    52  50  92 NE18G25   29.54R
CAPE HATTERAS  CLOUDY    56  53  90 NE9G20    29.51R
TARBORO*       RAIN      55  51  89 CALM      29.59R
GOLDSBORO      PTSUNNY   59  59 100 NW14      29.56R
WASHINGTON     HVY RAIN  54  53  95 N6        29.56R
GREENVILLE     HVY RAIN  55  55 100 NW5       29.61R
NEW BERN       HVY RAIN  57  54  89 NW12      29.57R FOG
WILMINGTON     MOSUNNY   62  50  64 NW17G24   29.56R
$$

VAZ048-052200-
ELSEWHERE

CITY           SKY/WX    TMP DP  RH WIND       PRES   REMARKS
HARRISBURG PA  CLOUDY    58  44  60 N9        29.64S
BALTIMORE      CLOUDY    54  45  71 N9        29.63S
ANNAPOLIS      CLOUDY    55  48  77 N7        29.63S
ANDREWS AFB    CLOUDY    55  47  74 NE13      29.62S
PHILADELPHIA   CLOUDY    57  44  62 NE10      29.63F
HENDERSON NC   RAIN      52  52 100 N5        29.60R
GREENSBORO     LGT RAIN  48  45  87 NW17      29.64S
ROCKY MOUNT    CLOUDY    54  52  93 N8        29.57S
$$

VAZ100-052200-
MARINE

STATION/POSITION TIME  TEMP    WIND        PRES    WAVE   SWELL
                       AIR SEA DIR/SP/G            HT/PER HT/PER
                 (UTC) (F)     (DEG/KT/KT) (MB)    (FT/S) (FT/S)
BRANDYWINE LGT   2000   51      40/ 13/ 16 1002.9F
CAPE MAY NJ      2000   51 56   30/  5/  8 1002.5F
LEWES DE         2000   52 55   30/ 15/ 17 1002.6F
15NM E FENWICK I 2050   49 51              1001.5F   9/ 7
OCEAN-CITY-INLET 2000   51 55   40/ 10/ 18 1001.5F
WACHAPREAGUE VA  2000   52 59   40/ 19/ 24 1001.0F
THOMAS POINT MD  2100   54 58  360/ 12/ 14 1004.5R
GOOSES REEF MD   2100   55 58   30/ 14/ 17 1003.9F   2/ 3
COVE POINT MD    2006   53      30/ 13/ 18 1003.1F
SOLOMONS ISLAND  2000   53 60   20/  9/ 13   N/A
BISHOPS HEAD MD  2000   53 58   30/ 13/ 16 1001.6F
PINEY POINT MD   2000           30/ 10/ 12   N/A
POTOMAC MD       2100   54 59   40/ 12/ 16 1001.3S   1
CAMBRIDGE MD     2000   54 60   20/ 12/ 15 1002.0F
LEWISETTA VA     2000   54 61   40/  8/ 13 1002.1F
RAPPAHANNOCK LGT 2000           30/ 21/ 24 1001.8F
STINGRAY PT      2100   54 61   40/ 16/ 19 1002.0R   2/ 3
YORK RVR RNG VA  2000   54      40/ 19/ 22 1000.4F
YORKTOWN VA      2000   54 63   20/ 15/ 20 1001.0F
JAMESTOWN VA     2100   53 67   40/  6/ 10   N/A     0
DOMINION TERM VA 2000   55      20/  8/ 17 1001.1F
KIPTOPEKE VA     2000      61   50/ 12/ 25   N/A
CHES BAY BRIDGE  2000   53 62   30/ 24/ 29 1000.0F
CAPE HENRY VA    2000   52      40/ 24/ 29   N/A
CHESAPEAKE LGHT  2000   50      30/ 30/ 31 1000.8F
WILLOUBY STN VA  2000   54      40/ 15/ 18 1001.8F
CAPE HENRY BUOY  2012      55                N/A     7/ 7
CAPE CHARLES BUO 2026      57                N/A     7/ 6   2/13
OFFSHORE WE BUOY 2021      54                N/A     8/ 7   3/13
64NM E OF VA BCH 2050   50 52   20/ 21/ 27  999.1R   7/ 7   3/12
DUCK PIER NC     2000   52 62   20/ 25/ 30  999.0F
44100 DUCK FRF   2024      55                N/A     8/ 7
44056 DUCK FRF   2011      60                N/A     7/ 7
OREGON INLET NC  2000   53 61  360/ 13/ 22  999.1F
HATTERAS NC      2000   57 68   20/ 17/ 23  998.2F
DIAMOND SHLS NC  2050   58 77   20/ 19/ 25  998.3R   6/ 6   2/14
CAPE LOOKOUT NC  2100   61      60/ 13/ 15  998.9R
$$




USA.gov is the U.S. government's official web portal to all federal, state and local government web resources and services.